Fort Rucker, AL

5:47 AM CDT on August 25, 2016 (GMT -0500)
Fort Rucker / Ozark

Weather History for KLOR - October, 2011

Change the Weather History Date:

Sunday, October 30, 2011

  Actual Average (KDHN) Record (KDHN)
Temperature  
Mean Temperature 50 °F 63 °F  
Max Temperature 66 °F 76 °F 88 °F (1951)
Min Temperature 33 °F 51 °F 30 °F (1952)
Degree Days  
Heating Degree Days 16 4  
Month to date heating degree days 52  
Since 1 July heating degree days 54  
Cooling Degree Days 0 2  
Month to date cooling degree days 133  
Year to date cooling degree days 2361  
Moisture  
Dew Point 30 °F    
Average Humidity 54    
Maximum Humidity 89    
Minimum Humidity 21    
Precipitation  
Precipitation 0.00 in 0.12 in 0.95 in (1959)
Month to date precipitation 3.29  
Year to date precipitation 45.27  
Sea Level Pressure  
Sea Level Pressure 30.19 in    
Wind  
Wind Speed 2 mph (ENE)    
Max Wind Speed 9 mph    
Max Gust Speed 18 mph    
Visibility 10 miles    
Events      
T = Trace of Precipitation, MM = Missing Value Source: NWS Daily Summary

Daily Weather History Graph

Daily Weather History Graph

Search for Another Location

Airport or City:

Trip Planner

Search our weather history database for the weather conditions in past years. The results will help you decide how hot, cold, wet, or windy it might be!

Date:

Astronomy

Oct. 30, 2011 Rise Set
Actual Time 6:56 AM CDT 5:55 PM CDT
Civil Twilight 6:31 AM CDT 6:20 PM CDT
Nautical Twilight 6:03 AM CDT 6:49 PM CDT
Astronomical Twilight 5:34 AM CDT 7:17 PM CDT
Moon 11:04 AM CDT (10/30) 9:34 PM CDT (10/30)
Length of Visible Light 11h 48m
Length of Day
10h 59m
Waxing Crescent, 20% of the Moon is Illuminated
Oct 30
Waxing Crescent
Nov 2
First Quarter
Nov 10
Full
Nov 18
Last Quarter
Nov 25
New

Hourly Weather History & Observations

Time (CDT) Temp. Windchill Dew Point Humidity Pressure Visibility Wind Dir Wind Speed Gust Speed Precip Events Conditions
12:53 AM 39.0 °F - 32.0 °F 76% 30.15 in 10.0 mi Calm Calm - N/A   Clear
1:53 AM 39.0 °F - 32.0 °F 76% 30.16 in 10.0 mi Calm Calm - N/A   Clear
2:53 AM 37.0 °F - 32.0 °F 82% 30.15 in 10.0 mi Calm Calm - N/A   Clear
3:53 AM 35.1 °F - 30.0 °F 82% 30.16 in 10.0 mi Calm Calm - N/A   Clear
4:53 AM 33.1 °F - 30.0 °F 89% 30.16 in 10.0 mi Calm Calm - N/A   Clear
5:53 AM 33.1 °F 30.0 °F 30.0 °F 89% 30.19 in 10.0 mi NE 3.5 mph - N/A   Clear
6:53 AM 34.0 °F - 28.9 °F 82% 30.22 in 10.0 mi Calm Calm - N/A   Clear
7:53 AM 39.9 °F - 35.1 °F 83% 30.23 in 10.0 mi Calm Calm - N/A   Clear
8:53 AM 51.1 °F - 33.1 °F 50% 30.24 in 10.0 mi Variable 5.8 mph - N/A   Clear
9:53 AM 55.0 °F - 30.9 °F 40% 30.25 in 10.0 mi ESE 6.9 mph - N/A   Clear
10:53 AM 61.0 °F - 28.0 °F 29% 30.24 in 10.0 mi Variable 5.8 mph 16.1 mph N/A   Clear
11:53 AM 63.0 °F - 27.0 °F 26% 30.22 in 10.0 mi ENE 8.1 mph 18.4 mph N/A   Clear
12:53 PM 64.9 °F - 26.1 °F 23% 30.20 in 10.0 mi Variable 4.6 mph - N/A   Clear
1:53 PM 66.0 °F - 26.1 °F 22% 30.18 in 10.0 mi ENE 9.2 mph - N/A   Clear
2:53 PM 66.9 °F - 26.1 °F 21% 30.17 in 10.0 mi Variable 4.6 mph - N/A   Clear
3:53 PM 66.0 °F - 27.0 °F 23% 30.16 in 10.0 mi Variable 4.6 mph - N/A   Clear
4:53 PM 64.9 °F - 26.1 °F 23% 30.16 in 10.0 mi Variable 3.5 mph - N/A   Clear
5:53 PM 61.0 °F - 28.0 °F 29% 30.17 in 10.0 mi Calm Calm - N/A   Clear
6:53 PM 55.9 °F - 28.9 °F 36% 30.19 in 10.0 mi Calm Calm - N/A   Clear
7:53 PM 54.0 °F - 30.0 °F 40% 30.19 in 10.0 mi Calm Calm - N/A   Clear
8:53 PM 48.9 °F - 33.1 °F 54% 30.20 in 10.0 mi Calm Calm - N/A   Clear
9:53 PM 45.0 °F - 35.1 °F 68% 30.20 in 10.0 mi Calm Calm - N/A   Clear
10:53 PM 45.0 °F - 36.0 °F 71% 30.20 in 10.0 mi Calm Calm - N/A   Scattered Clouds
11:53 PM 43.0 °F - 36.0 °F 76% 30.19 in 10.0 mi Calm Calm - N/A   Scattered Clouds